Terug naar catalogus

FENGYUN 1C DEB

ActiefSSO
NORAD 32453·DEBRIS·🇨🇳 China

Gelanceerd May 10, 1999 vanaf Taiyuan Satellite Launch Center

Loading…

Volgende Passages (komende 24 uur)

TLE

VersSource: Space-Track

Epoch: Sep 13, 2026, 17:24 UTC

1 32453U 99025DBR 26256.72558085  .00000802  00000-0  52621-3 0  9992
2 32453  99.3660 179.2633 0096543 171.2626 189.0247 14.02810504972830

Volg FENGYUN 1C DEB in realtime met AllMySat

Download on the App Store